Regional Weather Roundup
Issued by NWS

Home | Current Version | Previous Version | Text Only | Print | Product List | Glossary Off
Versions: 1 2 3 4 5 6 7 8 9 10 11 12 13 14 15 16 17 18 19 20 21 22 23 24 25 26 27 28 29 30 31 32 33 34 35 36 37 38 39 40 41 42 43 44 45 46 47 48

000
ASUS43 KDMX 292207
RWRIA

WEATHER ROUNDUP FOR IOWA
NATIONAL WEATHER SERVICE DES MOINES IA
500 PM CDT SAT AUG 29 2015

NOTE: "FAIR" INDICATES FEW OR NO CLOUDS BELOW 12,000 FEET WITH NO
SIGNIFICANT WEATHER AND/OR OBSTRUCTIONS TO VISIBILITY.

* - THESE STATIONS ARE NOT NWS STATIONS...THUS NOT UNDER NWS
QUALITY CONTROL.  THEY ALSO DO NOT REPORT WEATHER SUCH
AS PRECIPITATION OR FOG.

IAZ001>003-012>014-020>022-031>034-043>046-292300-
   NORTHWEST IOWA

CITY           SKY/WX    TMP DP  RH WIND       PRES   REMARKS
CARROLL *      CLOUDY    66  63  88 CALM      30.06S
CHEROKEE *     PTSUNNY   70  64  83 CALM      30.04F
DENISON *      CLOUDY    68  63  83 CALM      30.04S
LE MARS *      SUNNY     72  64  78 S6        30.04F
ORANGE CITY *  SUNNY     70  64  83 S3        30.04F
SHELDON *      SUNNY     72  64  78 S5        30.03F
SIOUX CITY     PTSUNNY   71  62  73 SE8       30.04S
SPENCER        HAZE      72  63  73 S6        30.04F VSB 1/2
STORM LAKE *   MOSUNNY   70  64  83 VRB5      30.06F
$$

IAZ055>058-069>071-079>083-090>094-292300-
   SOUTHWEST IOWA

CITY           SKY/WX    TMP DP  RH WIND       PRES   REMARKS
ATLANTIC *     CLOUDY    70  64  83 N6        30.05F
AUDUBON *      CLOUDY    66  63  88 CALM      30.07F
CLARINDA *     CLOUDY    70  66  88 NW6       30.05F
COUNCIL BLFS *   N/A     72  64  78 NE7       30.05S
CRESTON *      CLOUDY    70  64  83 N5        30.05F
HARLAN  *      CLOUDY    68 -27   2 E6        30.09S
LAMONI         CLOUDY    76  67  73 N8        30.02S
RED OAK *      CLOUDY    72  64  78 N6        30.04F
SHENANDOAH *   CLOUDY    72  64  78 CALM      30.05F
$$

IAZ047>049-059>061-072>074-084-292300-
   CENTRAL IOWA

CITY           SKY/WX    TMP DP  RH WIND       PRES   REMARKS
AMES           CLOUDY    72  63  73 CALM      30.03F
ANKENY *       CLOUDY    72  66  83 N5        30.03S
CHARITON *     CLOUDY    72  66  83 N6        30.03S
DES MOINES     CLOUDY    72  63  73 NW8       30.03S
GRINNELL*      CLOUDY    70  64  83 N7        30.04S
KNOXVILLE *    CLOUDY    73  64  73 VRB5      30.01S
MARSHALLTOWN   CLOUDY    71  63  75 N3        30.03S
PELLA *        CLOUDY    73  68  83 NW3       30.03S
PERRY *        CLOUDY    70  64  83 CALM      30.05S
$$

IAZ004>006-015-016-023>025-035-036-292300-
   NORTH CENTRAL IOWA

CITY           SKY/WX    TMP DP  RH WIND       PRES   REMARKS
ALGONA *       CLOUDY    66  63  88 CALM      30.06F
CLARION *      PTSUNNY   72  64  78 CALM      30.05R
ESTHERVILLE    PTSUNNY   69  64  84 SE8       30.04F
FORT DODGE *   CLOUDY    70  61  73 N3        30.06R
MASON CITY     MOSUNNY   74  65  73 CALM      30.06S
FOREST CITY *  PTSUNNY   72  63  73 CALM      30.05R
IOWA FALLS *     N/A     72  63  73 CALM      30.05F
$$

IAZ007>011-017>019-026>030-037>042-050>054-066-292300-
   NORTHEAST IOWA

CITY           SKY/WX    TMP DP  RH WIND       PRES   REMARKS
CEDAR RAPIDS   CLOUDY    73  68  84 N3        30.01R
CHARLES CITY * MOSUNNY   73  66  78 E6        30.04F
CLINTON *      CLOUDY    72  66  83 NE6       30.03S
DECORAH *      CLOUDY    70  63  78 VRB6      30.04S
DUBUQUE        CLOUDY    71  65  81 NE6       30.03S
MONTICELLO *   CLOUDY    72  66  83 VRB6      30.02R
OELWEIN *        N/A     70  64  83 E5        30.05S
WATERLOO       CLOUDY    72  63  73 E5        30.03R
$$

IAZ064-065-067-068-078-292300-
   EAST CENTRAL IOWA

CITY           SKY/WX    TMP DP  RH WIND       PRES   REMARKS
DAVENPORT      CLOUDY    72  67  84 N6        30.01S
IOWA CITY      CLOUDY    76  68  76 N6        30.01S
MT. PLEASANT * CLOUDY    77  66  69 N6        29.99S
MUSCATINE *    CLOUDY    75  68  78 NE6       30.00R
QUAD CITIES    CLOUDY    74  67  78 N6        29.99S
$$

IAZ062-063-075>077-085>089-095>099-292300-
   SOUTHEAST IOWA

CITY           SKY/WX    TMP DP  RH WIND       PRES   REMARKS
BURLINGTON     CLOUDY    77  69  76 CALM      29.98F
FAIRFIELD *    CLOUDY    73  68  83 N7        30.01R
FORT MADISON * CLOUDY    75  70  83 CALM      30.00S
KEOKUK *       CLOUDY    77  70  78 CALM      29.98S
OSKALOOSA *    CLOUDY    73  68  83 CALM      30.02S
CENTERVILLE *  CLOUDY    72  68  88 NW7       30.04R
OTTUMWA        CLOUDY    74  67  78 CALM      30.00S
WASHINGTON *     N/A    N/A N/A N/A MISG        N/A
$$

ABBREVIATIONS USED IN REMARKS
   TC - TEMPERATURES IN CELSIUS
  WCI - WIND CHILL INDEX
   HX - HEAT INDEX
  VSB - VISIBILITY
$$



USA.gov is the U.S. government's official web portal to all federal, state and local government web resources and services.